Location: Garzáin
(43.1301°N, 1.5373°W)
Time: 14:26:53
(UTC+00:00)

Cosmos 2297 - Pass Details

Date: 14 August 2025
Orbit: 836 x 856 km, 71.0° (Epoch: 15 December)

Event Time Altitude Azimuth Distance (km) Brightness Sun altitude
Rises 01:00:44 0° 333° (NNW) 3,436 7.5 -31.4°
Reaches altitude 10° 01:03:12 10° 332° (NNW) 2,497 6.7 -31.3°
Enters shadow 01:07:21 48° 317° (NW) 1,107 4.4 -31.1°
